Location: Mentone
(34.5413°N, 85.5351°W)
Time: 08:44:46
(UTC-05:00)

Okean O Rocket - Visible Passes

Search period start: 26 June 2016 00:00
Search period end: 06 July 2016 00:00
Orbit: 623 x 646 km, 98.1° (Epoch: 25 June)

Date Brightness Start Highest point End Pass type
(mag) Time Alt. Az. Time Alt. Az. Time Alt. Az.
26 Jun 1.8 04:00:14 10° NNE 04:04:35 69° ESE 04:08:10 15° S visible
27 Jun 1.6 04:21:59 10° N 04:26:18 65° WNW 04:30:08 13° SSW visible
28 Jun 4.1 03:08:48 10° NE 03:11:30 16° E 03:14:10 10° SE visible
28 Jun 2.4 04:44:00 10° N 04:47:58 35° WNW 04:51:54 10° SW visible
29 Jun 3.3 03:29:36 10° NE 03:33:22 28° E 03:36:37 13° SSE visible
30 Jun 2.2 03:50:56 10° NNE 03:55:11 52° E 03:58:35 15° S visible
01 Jul 1.5 04:12:34 10° N 04:16:56 85° WNW 04:20:34 15° SSW visible
02 Jul 4.2 03:00:16 10° ENE 03:02:02 12° E 03:03:49 10° ESE visible
02 Jul 2.0 04:34:27 10° N 04:38:37 46° WNW 04:42:32 11° SW visible
03 Jul 3.6 03:20:33 10° NE 03:23:56 22° E 03:27:02 11° SE visible
03 Jul 2.8 04:56:38 10° NNW 05:00:14 26° WNW 05:03:50 10° SW visible
04 Jul 2.7 03:41:41 10° NNE 03:45:46 39° E 03:49:00 15° SSE visible
05 Jul 1.7 04:03:12 10° NNE 04:07:33 74° ESE 04:10:58 16° S visible
